Ardmore, OK

1:59 AM CDT on June 25, 2017 (GMT -0500)
Ardmore Municipal

Weather History for KADM - July, 2013

Change the Weather History Date:

Sunday, July 14, 2013

  Actual Average Record
Temperature  
Mean Temperature 72 °F -  
Max Temperature 79 °F 93 °F 107 °F (2011)
Min Temperature 64 °F 72 °F 64 °F (2007)
Cooling Degree Days 6    
Growing Degree Days 22 (Base 50)    
Moisture  
Dew Point 62 °F    
Average Humidity 68    
Maximum Humidity 88    
Minimum Humidity 50    
Precipitation  
Precipitation 0.08 in - - ()
Sea Level Pressure  
Sea Level Pressure 29.97 in    
Wind  
Wind Speed 4 mph (ESE)    
Max Wind Speed 9 mph    
Max Gust Speed -    
Visibility 9 miles    
Events Rain , Thunderstorm    
Averages and records for this station are not official NWS values.
T = Trace of Precipitation, MM = Missing Value Source: NWS Daily Summary

Daily Weather History Graph

Daily Weather History Graph

Search for Another Location

Airport or City:

Trip Planner

Search our weather history database for the weather conditions in past years. The results will help you decide how hot, cold, wet, or windy it might be!

Date:

Astronomy

Jul. 14, 2013 Rise Set
Actual Time 6:26 AM CDT 8:40 PM CDT
Civil Twilight 5:58 AM CDT 9:09 PM CDT
Nautical Twilight 5:22 AM CDT 9:44 PM CDT
Astronomical Twilight 4:44 AM CDT 10:22 PM CDT
Moon 12:26 PM CDT (7/14) No Moon Set
Length of Visible Light 15h 11m
Length of Day
14h 14m
Waxing Crescent, 35% of the Moon is Illuminated
Jul 14
Waxing Crescent
Jul 15
First Quarter
Jul 22
Full
Jul 29
Last Quarter
Aug 6
New

Hourly Weather History & Observations

Time (CDT) Temp. Dew Point Humidity Pressure Visibility Wind Dir Wind Speed Gust Speed Precip Events Conditions
12:15 AM 78.8 °F 61.9 °F 56% 29.94 in 10.0 mi ESE 4.6 mph - N/A   Clear
12:35 AM 78.8 °F 61.7 °F 56% 29.94 in 10.0 mi ESE 6.9 mph - N/A   Clear
12:55 AM 79.3 °F 61.3 °F 54% 29.95 in 10.0 mi ESE 5.8 mph - N/A   Clear
1:15 AM 79.7 °F 60.3 °F 51% 29.94 in 10.0 mi SE 5.8 mph - N/A   Clear
1:35 AM 79.7 °F 59.7 °F 50% 29.93 in 10.0 mi SE 4.6 mph - N/A   Clear
1:55 AM 79.5 °F 59.5 °F 50% 29.93 in 10.0 mi Calm Calm - N/A   Clear
2:15 AM 78.8 °F 59.5 °F 52% 29.91 in 10.0 mi SSE 5.8 mph - N/A   Clear
2:35 AM 78.4 °F 58.3 °F 50% 29.94 in 10.0 mi NE 4.6 mph - N/A   Clear
2:55 AM 78.1 °F 58.3 °F 50% 29.94 in 10.0 mi East 4.6 mph - N/A   Scattered Clouds
3:15 AM 77.9 °F 57.7 °F 50% 29.94 in 10.0 mi East 5.8 mph - N/A   Clear
3:35 AM 77.2 °F 57.9 °F 51% 29.94 in 10.0 mi Calm Calm - N/A Rain Light Rain
3:55 AM 75.7 °F 59.4 °F 57% 29.96 in 10.0 mi ENE 3.5 mph - N/A Rain Light Rain
4:15 AM 74.5 °F 60.4 °F 61% 29.98 in 7.0 mi NE 6.9 mph - N/A Rain Light Rain
4:35 AM 72.7 °F 59.9 °F 64% 29.97 in 10.0 mi Calm Calm - 0.01 in Rain Light Rain
4:55 AM 71.8 °F 63.3 °F 75% 29.97 in 5.0 mi Calm Calm - 0.04 in Rain Rain
5:15 AM 70.7 °F 64.0 °F 79% 29.98 in 10.0 mi Calm Calm - N/A   Light Drizzle
5:35 AM 70.7 °F 64.4 °F 80% 29.96 in 7.0 mi Calm Calm - 0.01 in Rain Light Rain
5:55 AM 70.7 °F 64.4 °F 80% 29.95 in 7.0 mi Calm Calm - 0.02 in Rain Rain
6:15 AM 70.2 °F 64.0 °F 81% 29.97 in 10.0 mi Calm Calm - N/A Rain Light Rain
6:35 AM 70.0 °F 64.4 °F 82% 29.97 in 7.0 mi East 3.5 mph - 0.02 in Rain , Thunderstorm Light Thunderstorms and Rain
7:55 AM 69.8 °F 64.4 °F 83% 30.01 in 5.0 mi Calm Calm - N/A Rain Light Rain
8:55 AM 69.8 °F 64.4 °F 83% 30.02 in 4.0 mi WSW 9.2 mph - N/A Rain Rain
9:55 AM 69.8 °F 64.4 °F 83% 30.04 in 5.0 mi North 3.5 mph - N/A Rain Light Rain
10:55 AM 69.8 °F 64.4 °F 83% 30.01 in 7.0 mi Calm Calm - N/A   Mostly Cloudy
12:55 PM 71.6 °F 66.2 °F 83% 30.02 in 10.0 mi Calm Calm - N/A   Scattered Clouds
1:55 PM 71.6 °F 68.0 °F 88% 29.97 in 7.0 mi South 4.6 mph - N/A   Scattered Clouds
11:35 PM 64.4 °F 60.4 °F 87% 30.02 in 10.0 mi Calm Calm - N/A   Light Drizzle
11:55 PM 64.4 °F 60.8 °F 88% 30.01 in 10.0 mi Calm Calm - N/A   Light Drizzle